Weather History for Shannon, Ireland

Change the Weather History Date:

Thursday, December 27, 2012

  Actual Average Record
Temperature  
Mean Temperature 44 °F -  
Max Temperature 48 °F 47 °F 55 °F (2007)
Min Temperature 41 °F 37 °F 28 °F (2000)
Degree Days  
Heating Degree Days 20    
Moisture  
Dew Point 41 °F    
Average Humidity 90    
Maximum Humidity 100    
Minimum Humidity 74    
Precipitation  
Precipitation 0.01 in 0.13 in - ()
Sea Level Pressure  
Sea Level Pressure 29.69 in    
Wind  
Wind Speed 8 mph ()    
Max Wind Speed 16 mph    
Max Gust Speed -    
Visibility 6.4 miles    
Events Rain    
Averages and records for this station are not official NWS values.
T = Trace of Precipitation, MM = Missing Value Source: Averaged Metar Reports

Daily Weather History Graph

Daily Weather History Graph

Search for Another Location

Airport:

Trip Planner

Search our weather history database for the weather conditions in past years. The results will help you decide how hot, cold, wet, or windy it might be!

Date:

Astronomy

Dec. 27, 2012 Rise Set
Actual Time 8:47 AM GMT 4:26 PM GMT
Civil Twilight 8:05 AM GMT 5:08 PM GMT
Nautical Twilight 7:21 AM GMT 5:52 PM GMT
Astronomical Twilight 6:39 AM GMT 6:34 PM GMT
Moon 4:02 PM GMT (12/27) 7:43 AM GMT (12/27)
Length of Visible Light 9h 02m
Length of Day
7h 39m
Waxing Gibbous, 99% of the Moon is Illuminated
Dec 27
Waxing Gibbous
Dec 28
Full
Jan 5
Last Quarter
Jan 11
New
Jan 18
First Quarter

Hourly Weather History & Observations

Time (GMT) Temp. Windchill Dew Point Humidity Pressure Visibility Wind Dir Wind Speed Gust Speed Precip Events Conditions
12:00 AM 44 °F - 38 °F 74% 29.46 in 12 mi South 8.9 mph - -   Partly Cloudy
12:00 AM 44.6 °F 40.2 °F 39.2 °F 81% 29.44 in 6.2 mi South 8.1 mph - N/A   Mostly Cloudy
12:30 AM 44.6 °F 40.2 °F 39.2 °F 81% 29.42 in 6.2 mi SE 8.1 mph - N/A   Mostly Cloudy
1:00 AM 44.6 °F 39.7 °F 39.2 °F 81% 29.42 in 6.2 mi South 9.2 mph - N/A   Mostly Cloudy
1:30 AM 44.6 °F 38.4 °F 41.0 °F 87% 29.39 in 6.2 mi South 12.7 mph - N/A Rain Rain
2:00 AM 42.8 °F 38.6 °F 41.0 °F 93% 29.36 in 6.2 mi SSE 6.9 mph - N/A Rain Light Rain
2:30 AM 42.8 °F 39.3 °F 41.0 °F 93% 29.36 in 6.2 mi East 5.8 mph - N/A Rain Light Rain
3:00 AM 42.8 °F 40.1 °F 41.0 °F 93% 29.33 in 5.0 mi East 4.6 mph - N/A Rain Light Rain
3:30 AM 42.8 °F 40.1 °F 41.0 °F 93% 29.36 in 5.0 mi NE 4.6 mph - N/A Rain Light Rain
4:00 AM 42.8 °F 39.3 °F 41.0 °F 93% 29.36 in 5.0 mi North 5.8 mph - N/A   Light Drizzle
4:30 AM 42.8 °F 38.0 °F 41.0 °F 93% 29.39 in 4.3 mi NNW 8.1 mph - N/A Rain Light Rain
5:30 AM 41.0 °F 35.8 °F 41.0 °F 100% 29.42 in 5.0 mi NNW 8.1 mph - N/A Rain Light Rain
6:00 AM 41 °F - 40 °F 97% 29.48 in 9 mi NNW 6.7 mph - - Rain Light Rain
6:00 AM 41.0 °F 36.4 °F 41.0 °F 100% 29.47 in 6.2 mi NNW 6.9 mph - N/A Rain Light Rain
6:30 AM 41.0 °F 37.1 °F 41.0 °F 100% 29.50 in 6.2 mi NW 5.8 mph - N/A Rain Light Rain
7:00 AM 41.0 °F 37.1 °F 41.0 °F 100% 29.53 in 6.2 mi NW 5.8 mph - N/A   Mostly Cloudy
7:30 AM 41.0 °F 37.1 °F 41.0 °F 100% 29.56 in 6.2 mi WNW 5.8 mph - N/A   Mostly Cloudy
8:00 AM 41.0 °F 34.3 °F 39.2 °F 93% 29.59 in 6.2 mi WNW 11.5 mph - N/A   Mostly Cloudy
8:30 AM 42.8 °F 36.2 °F 39.2 °F 87% 29.65 in 6.2 mi West 12.7 mph - N/A   Mostly Cloudy
9:00 AM 42.8 °F 36.6 °F 41.0 °F 93% 29.68 in 6.2 mi West 11.5 mph - N/A   Scattered Clouds
9:30 AM 41.0 °F 33.9 °F 41.0 °F 100% 29.71 in 6.2 mi WSW 12.7 mph - N/A   Partly Cloudy
10:00 AM 42.8 °F 36.2 °F 41.0 °F 93% 29.74 in 6.2 mi WSW 12.7 mph - N/A   Partly Cloudy
10:30 AM 42.8 °F 36.6 °F 41.0 °F 93% 29.77 in 6.2 mi WSW 11.5 mph - N/A   Partly Cloudy
11:00 AM 44.6 °F 39.7 °F 41.0 °F 87% 29.77 in 6.2 mi WSW 9.2 mph - N/A   Partly Cloudy
11:30 AM 46.4 °F 42.9 °F 44.6 °F 93% 29.80 in 6.2 mi WSW 6.9 mph - N/A   Partly Cloudy
12:00 PM 48 °F - 44 °F 79% 29.83 in 19 mi WSW 8.9 mph - -   Partly Cloudy
12:00 PM 48.2 °F - 42.8 °F 82% 29.80 in 6.2 mi WSW 9.2 mph - N/A   Partly Cloudy
12:30 PM 48.2 °F - 42.8 °F 82% 29.83 in 6.2 mi West 16.1 mph - N/A   Partly Cloudy
1:00 PM 48.2 °F - 41.0 °F 76% 29.83 in 6.2 mi West 12.7 mph - N/A   Scattered Clouds
1:30 PM 46.4 °F 41.1 °F 41.0 °F 81% 29.86 in 6.2 mi West 11.5 mph - N/A   Mostly Cloudy
2:00 PM 46.4 °F 42.4 °F 41.0 °F 81% 29.86 in 6.2 mi WSW 8.1 mph - N/A   Mostly Cloudy
2:30 PM 46.4 °F 42.4 °F 41.0 °F 81% 29.86 in 6.2 mi SW 8.1 mph - N/A   Mostly Cloudy
3:00 PM 46.4 °F 42.4 °F 42.8 °F 87% 29.86 in 6.2 mi SW 8.1 mph - N/A   Mostly Cloudy
3:30 PM 46.4 °F 42.4 °F 42.8 °F 87% 29.89 in 6.2 mi SW 8.1 mph - N/A   Mostly Cloudy
4:00 PM 46.4 °F 42.4 °F 42.8 °F 87% 29.89 in 6.2 mi SSW 8.1 mph - N/A   Mostly Cloudy
4:30 PM 44.6 °F 40.2 °F 41.0 °F 87% 29.89 in 6.2 mi South 8.1 mph - N/A   Mostly Cloudy
5:00 PM 44.6 °F 40.7 °F 41.0 °F 87% 29.89 in 6.2 mi South 6.9 mph - N/A   Mostly Cloudy
5:30 PM 44.6 °F 40.2 °F 41.0 °F 87% 29.89 in 6.2 mi SSE 8.1 mph - N/A   Mostly Cloudy
6:00 PM 44 °F - 42 °F 88% 29.91 in 7 mi South 11.2 mph - - Rain Light Rain
6:00 PM 44.6 °F 39.2 °F 41.0 °F 87% 29.89 in 6.2 mi South 10.4 mph - N/A Rain Light Rain
6:30 PM 44.6 °F 39.7 °F 42.8 °F 93% 29.92 in 6.2 mi South 9.2 mph - N/A Rain Light Rain
7:00 PM 44.6 °F 39.2 °F 42.8 °F 93% 29.89 in 6.2 mi South 10.4 mph - N/A Rain Light Rain
7:30 PM 42.8 °F 36.6 °F 41.0 °F 93% 29.89 in 6.2 mi SSE 11.5 mph - N/A Rain Light Rain
8:00 PM 42.8 °F 36.6 °F 42.8 °F 100% 29.89 in 6.2 mi SSE 11.5 mph - N/A Rain Light Rain
8:30 PM 42.8 °F 36.2 °F 42.8 °F 100% 29.89 in 3.1 mi SE 12.7 mph - N/A Rain Light Rain
9:00 PM 42.8 °F 35.4 °F 42.8 °F 100% 29.86 in 6.2 mi SE 15.0 mph - N/A Rain Light Rain
9:30 PM 42.8 °F 35.8 °F 42.8 °F 100% 29.86 in 6.2 mi SE 13.8 mph - N/A Rain Light Rain
10:00 PM 44.6 °F 37.4 °F 42.8 °F 93% 29.83 in 6.2 mi SE 16.1 mph - N/A Rain Light Rain
10:30 PM 44.6 °F 37.8 °F 42.8 °F 93% 29.83 in 6.2 mi SE 15.0 mph - N/A Rain Light Rain
11:00 PM 44.6 °F 38.1 °F 44.6 °F 100% 29.80 in 6.2 mi SE 13.8 mph - N/A   Mostly Cloudy
11:30 PM 46.4 °F 39.8 °F 44.6 °F 93% 29.80 in 6.2 mi SE 16.1 mph - N/A   Mostly Cloudy